World > North America > United States > Florida   City of Orlando, FL

Orlando, Florida Regional Weather

Lat: 28.50N, Lon: 81.37W
Wx Zone: FLZ045Web Search

Our weather pages are very print friendly and they make great conversation starters.

Feedback
Orlando Weather Map
UTC Time: 2/26/2021, 04:42
Your Time:

Orlando, FL Regional Weather

Expires:202102260500;;128094
ASUS42 KTBW 260417
RWRFL 
FLORIDA REGIONAL WEATHER ROUNDUP
NATIONAL WEATHER SERVICE TAMPA BAY RUSKIN FL
1100 PM EST THU FEB 25 2021

NOTE: "FAIR" INDICATES FEW OR NO CLOUDS BELOW 12,000 FEET WITH NO
SIGNIFICANT WEATHER AND/OR OBSTRUCTIONS TO VISIBILITY.


FLZ040-043>046-052-053-057-058-063-144-260500-
INTERIOR CENTRAL FLORIDA
  
CITY           SKY/WX    TMP DP  RH WIND       PRES   REMARKS
OCALA          CLEAR     60  60 100 CALM      30.20S                  
LEESBURG       CLEAR     63  54  72 CALM      30.20S                  
SANFORD        CLEAR     63  51  65 S3        30.18S                  
ORLANDO EXEC   CLEAR     64  49  57 CALM      30.19S                  
ORLANDO INTL   PTCLDY    63  49  60 CALM      30.19S                  
KISSIMMEE      MOCLDY    65  52  62 CALM      30.21R                  
WINTER HAVEN   PTCLDY    65  54  67 NE5       30.21R                  
LAKELAND       CLEAR     64  59  82 N5        30.20S                  
BARTOW         FAIR      66  57  72 CALM      30.20S                  
SEBRING        FAIR      63  55  74 E3        30.19F                  
OKEECHOBEE     CLEAR     59  55  88 CALM      30.18S                  

$$

SKY/WX - Weather  TMP - Temperature  DP - Dew Point  RH - Relative Humidity
WIND - Wind Direction/Speed PRES - Barometric Pressure VSB - Visibility
WCI - Wind Chill Index E13G22 Wind - East Wind 13 mph/Gusts of 22 mph